User: anonymous
Location: Unspecified
(0.0000°N, 0.0000°E)
Time: 12:43:36
(UTC+02:00)
Language:

Milstar 3 - Orbit

View from above orbital plane
View from above orbital plane
View from above satellite
View from above satellite

Ground track
Ground track

The orbit data is extracted from the following two-line orbital elements,

1 25724U 99023A   14175.75879875 0.00000000  00000-0  00000-0 0    00
2 25724  28.2146  10.2542 2127299  27.5578 332.4417  9.37446694    01
Epoch (UTC): 24 June 2014 18:12:40
Eccentricity: 0.2127299
inclination: 28.2146°
perigee height: 1102 km
apogee height: 5144 km
right ascension of ascending node: 10.2542°
argument of perigee: 27.5578°
revolutions per day: 9.37446694
mean anomaly at epoch: 332.4417°
orbit number at epoch: 0

The dashed part of the orbit path shows where the satellite is in the earth's shadow,  

DLR